Tiempo atmosférico en la estación meteorológica de Montehermoso, Cáceres (351 m.)



Fecha
DESCASC
Temp. máxima en grados centígrados (hora)
DESCASC
Temp. mínima en grados centígrados (hora)
DESCASC
Temp. media en grados centígrados
DESCASC
Racha de viento máxima en m/sg (hora)
DESCASC
Velocidad máxima media en intervalos de 10 minutos(hora)
DESCASC
Precipitaciones diarias en mm
DESCASC
Precipitaciones de 00:00 a 06:00 en mm
DESCASC
Precipitaciones de 06:00 a 12:00 en mm
DESCASC
Precipitaciones de 12:00 a 18:00 en mm
DESCASC
Precipitaciones de 18:00 a 24:00 en mm
DESCASC
08-12-2019 10.1 (13:50) 3.3 (07:00) 6.7 3.33 (22:30) 1.94 (13:50) 1.8 0 0 1.8 0
07-12-2019 15.1 (15:40) 2.4 (08:30) 8.8 3.33 (13:20) 1.67 (16:10) 0 0 0 0 0
06-12-2019 16.5 (16:00) 3.7 (08:40) 10.1 4.72 (13:00) 2.5 (12:40) 0 0 0 0 0
05-12-2019 15.1 (15:40) 8 (00:00) 11.6 11.94 (05:20) 6.39 (05:20) 0 0 0 0 0
04-12-2019 12.7 (16:40) 5.5 (00:00) 9.1 8.89 (19:30) 4.44 (18:40) 0 0 0 0 0
03-12-2019 12.6 (15:50) 4.6 (00:00) 8.6 8.89 (02:50) 4.72 (02:50) 0 0 0 0 0
02-12-2019 13.6 (14:30) 7.7 (00:00) 10.7 11.67 (10:00) 6.39 (10:50) 0.4 0.4 0 0 0
01-12-2019 13.1 (14:00) 5.4 (00:00) 9.3 10 (23:30) 5 (23:30) 5.6 2.4 2 1.2 0
30-11-2019 14.2 (12:20) 6.4 (00:00) 10.3 10.28 (17:20) 5.28 (13:20) 4.6 0 0.2 3.6 0.8
29-11-2019 14.9 (15:30) 13 (00:00) 13.9 4.17 (00:50) 2.22 (05:10) 4.6 1.6 0.8 2 0.2
28-11-2019 14 (17:00) 6.6 (00:00) 10.3 6.67 (14:10) 3.61 (12:30) 3.4 0 1 2.4 0
27-11-2019 14.1 (16:40) 7 (00:00) 10.6 7.78 (15:20) 3.89 (15:30) 0 0 0 0 0
26-11-2019 14.9 (16:50) 8.9 (00:00) 11.9 8.33 (16:50) 4.44 (16:50) 15.8 1.6 2.8 10.2 1.2
25-11-2019 16.8 (15:40) 10.1 (00:00) 13.4 5.56 (14:10) 2.78 (13:20) 10.2 9.4 0.8 0 0
24-11-2019 13 (16:20) 2.7 (00:00) 7.9 5.28 (16:40) 3.61 (16:40) 2.6 0 0 0 2.6
23-11-2019 13.9 (16:30) 7 (00:00) 10.4 8.89 (08:50) 5 (16:50) 1.2 1.2 0 0 0
22-11-2019 16.4 (14:50) 9.1 (00:00) 12.8 11.39 (16:10) 6.39 (16:10) 16.4 3.8 11 0.2 1.4
21-11-2019 13 (16:30) 7 (00:00) 10 4.17 (06:40) 2.5 (06:40) 3 1.6 1.2 0.2 0
20-11-2019 7.9 (02:00) 6.5 (00:00) 7.2 5.28 (12:40) 3.61 (12:40) 19.8 1 14.2 4.6 0
19-11-2019 10.3 (15:20) 0.6 (00:00) 5.5 3.33 (01:00) 1.67 (12:50) 0 0 0 0 0
18-11-2019 14.7 (15:50) 2.3 (00:00) 8.5 7.22 (00:50) 4.17 (01:10) 0 0 0 0 0
17-11-2019 9.1 (22:10) 4.5 (00:00) 6.8 8.33 (22:10) 5 (22:10) 5.2 0.6 0.8 3.6 0.2
16-11-2019 11.8 (15:00) 0 (00:00) 5.9 7.22 (15:10) 3.89 (15:10) 0 0 0 0 0
15-11-2019 11.2 (14:40) 5.7 (00:00) 8.4 11.11 (13:50) 6.67 (13:50) 0 0 0 0 0
14-11-2019 12.2 (14:30) 7.5 (00:00) 9.8 13.61 (14:30) 8.06 (14:40) 2.2 1.4 0.6 0.2 0
13-11-2019 19.9 (15:40) 9.7 (00:00) 14.8 10.83 (15:20) 6.39 (15:20) 1 1 0 0 0
12-11-2019 16.1 (16:20) 5.4 (00:00) 10.8 8.06 (07:30) 5.28 (01:20) 0 0 0 0 0
11-11-2019 16.7 (16:50) 8.4 (23:00) 12.6 5.83 (17:50) 3.61 (00:10) 0.2 0.2 0 0 0
10-11-2019 11.6 (11:20) 8.7 (00:00) 10.2 13.06 (11:30) 6.67 (11:50) 0 0 0 0 0

Gráficas

Temp. máximas Temp. mínimas Temp. medias Precipitaciones Rachas de viento máximas Velocidades máximas media en intervalos de 10 minutos

Datos horarios

Fecha y hora oficial Temperatura (ºC) Velocidad del viento (km/h) Dirección del viento Racha (km/h) Dirección de racha Precipitación (mm) Presión (hPa) Tendencia (hPa) Humedad (%)
2019-12-09 23:00:00 7.5 6 Nordeste 11 Nordeste 0 -- -- 83
2019-12-09 22:00:00 7.8 3 Norte 7 Sudeste 0 -- -- 93
2019-12-09 21:00:00 8.9 5 Norte 9 Noroeste 0 -- -- 92
2019-12-09 20:00:00 9.7 6 Noroeste 18 Oeste 0 -- -- 88
2019-12-09 19:00:00 9.4 3 Noroeste 4 Norte 0 -- -- 92
2019-12-09 18:00:00 11.2 2 Noroeste 8 Sudeste 0 -- -- 84
2019-12-09 17:00:00 12.6 6 Sudeste 10 Sudeste 0 -- -- 79
2019-12-09 16:00:00 11.9 4 Sudeste 9 Sur 0 -- -- 81
2019-12-09 15:00:00 11.3 3 Sur 13 Sudeste 0 -- -- 84
2019-12-09 14:00:00 11.7 6 Sudeste 11 Sudeste 0 -- -- 85
2019-12-09 13:00:00 9 4 Sudeste 11 Sur 0 -- -- 99
2019-12-09 12:00:00 7.8 7 Sudeste 12 Sudeste 0 -- -- 98
2019-12-09 11:00:00 8.3 2 Sur 6 Oeste 0 -- -- 100
2019-12-09 10:00:00 4.7 2 Noroeste 5 Noroeste 0 -- -- 100
2019-12-09 09:00:00 1.9 0 Calma 6 Oeste 0 -- -- 99
2019-12-09 08:00:00 2.8 0 Calma 8 Sudeste 0 -- -- 98
2019-12-09 07:00:00 3.4 4 Noroeste 6 Oeste 0 -- -- 99
2019-12-09 06:00:00 4.1 5 Noroeste 8 Norte 0 -- -- 98
2019-12-09 05:00:00 5.7 0 Calma 13 Oeste 0 -- -- 99
2019-12-09 04:00:00 5.5 5 Norte 6 Oeste 0 -- -- 99
2019-12-09 03:00:00 5.3 0 Calma 4 Norte 0 -- -- 99
2019-12-09 02:00:00 6.3 4 Norte 10 Noroeste 0 -- -- 99
2019-12-09 01:00:00 7.1 0 Calma 9 Oeste 0 -- -- 98
2019-12-09 00:00:00 8.5 3 Noroeste 5 Noroeste 0 -- -- 98
2019-12-08 23:00:00 9.2 2 Sudeste 12 Sudeste 0 -- -- 98
2019-12-08 22:00:00 9.7 3 Norte 5 Norte 0 -- -- 97
2019-12-08 21:00:00 10.1 3 Sudeste 10 Noroeste 0 -- -- 97
2019-12-08 20:00:00 9.9 3 Oeste 5 Oeste 0 -- -- 97
2019-12-08 19:00:00 9.8 3 Noroeste 8 Oeste 0 -- -- 97
2019-12-08 18:00:00 9.8 0 Calma 4 Oeste 0 -- -- 96
2019-12-08 17:00:00 9.5 0 Calma 3 Sur 0.2 -- -- 96
2019-12-08 16:00:00 9.2 3 Sudeste 5 Sudeste 1.4 -- -- 95
2019-12-08 15:00:00 9.5 0 Calma 9 Sudeste 0.2 -- -- 92
2019-12-08 14:00:00 9.9 7 Sudeste 10 Sudeste 0 -- -- 88
2019-12-08 13:00:00 9.3 5 Sudeste 8 Sudeste 0 -- -- 92
2019-12-08 12:00:00 8.3 4 Sudeste 7 Sudeste 0 -- -- 94
2019-12-08 11:00:00 5.9 0 Calma 4 Sudeste 0 -- -- 98
2019-12-08 10:00:00 5.5 0 Calma 4 Sudeste 0 -- -- 98
2019-12-08 09:00:00 4.9 2 Norte 4 Norte 0 -- -- 99
2019-12-08 08:00:00 3.5 3 Noroeste 4 Noroeste 0 -- -- 98
2019-12-08 07:00:00 3.3 0 Calma 4 Sur 0 -- -- 98
2019-12-08 06:00:00 4.3 3 Sudeste 5 Sudeste 0 -- -- 97
2019-12-08 05:00:00 3.8 3 Noroeste 5 Oeste 0 -- -- 97
2019-12-08 04:00:00 4.7 3 Sudeste 8 Oeste 0 -- -- 97
2019-12-08 03:00:00 5 2 Noroeste 6 Noroeste 0 -- -- 97
2019-12-08 02:00:00 5.1 4 Noroeste 5 Noroeste 0 -- -- 97
2019-12-08 01:00:00 5 2 Norte 6 Nordeste 0 -- -- 97
2019-12-08 00:00:00 5.3 2 Noroeste 4 Este 0 -- -- 95
2019-12-07 23:00:00 6 3 Noroeste 5 Oeste 0 -- -- 94
2019-12-07 22:00:00 6.8 3 Oeste 5 Oeste 0 -- -- 92
2019-12-07 21:00:00 7.7 5 Oeste 6 Oeste 0 -- -- 90
2019-12-07 20:00:00 9 5 Noroeste 8 Noroeste 0 -- -- 87
2019-12-07 19:00:00 9.4 4 Oeste 6 Noroeste 0 -- -- 85
2019-12-07 18:00:00 12 3 Oeste 10 Oeste 0 -- -- 76
2019-12-07 17:00:00 14.8 5 Oeste 12 Oeste 0 -- -- 67
2019-12-07 16:00:00 15 5 Sudoeste 11 Oeste 0 -- -- 67
2019-12-07 15:00:00 14.6 5 Sur 10 Sur 0 -- -- 68
2019-12-07 14:00:00 13.5 3 Oeste 12 Sur 0 -- -- 70
2019-12-07 13:00:00 12.5 3 Sudeste 9 Sur 0 -- -- 73
2019-12-07 12:00:00 11 4 Este 8 Este 0 -- -- 78
2019-12-07 11:00:00 7.9 0 Calma 9 Sudeste 0 -- -- 88
2019-12-07 10:00:00 6.4 0 Calma 5 Oeste 0 -- -- 99
2019-12-07 09:00:00 3.6 0 Calma 6 Norte 0 -- -- 98
2019-12-07 08:00:00 3 3 Noroeste 5 Noroeste 0 -- -- 97
2019-12-07 07:00:00 3 3 Noroeste 5 Oeste 0 -- -- 97
2019-12-07 06:00:00 3.6 3 Sudeste 6 Oeste 0 -- -- 97
2019-12-07 05:00:00 3.5 3 Noroeste 5 Norte 0 -- -- 95
2019-12-07 04:00:00 4.4 3 Norte 7 Sudeste 0 -- -- 94
2019-12-07 03:00:00 5.4 2 Sur 5 Nordeste 0 -- -- 96
2019-12-07 02:00:00 4.3 3 Noroeste 5 Oeste 0 -- -- 95
2019-12-07 01:00:00 5.4 4 Noroeste 9 Noroeste 0 -- -- 93
2019-12-07 00:00:00 5.8 5 Noroeste 8 Oeste 0 -- -- 94
2019-12-06 23:00:00 6 2 Norte 6 Noroeste 0 -- -- 92
2019-12-06 22:00:00 6.8 3 Noroeste 8 Oeste 0 -- -- 90
2019-12-06 21:00:00 7.3 3 Noroeste 5 Oeste 0 -- -- 91
2019-12-06 20:00:00 7.8 2 Noroeste 4 Noroeste 0 -- -- 88
2019-12-06 19:00:00 9.3 4 Noroeste 6 Noroeste 0 -- -- 84
2019-12-06 18:00:00 13.2 0 Calma 5 Nordeste 0 -- -- 70
2019-12-06 17:00:00 16.2 2 Nordeste 9 Este 0 -- -- 54
2019-12-06 16:00:00 16.5 4 Este 10 Nordeste 0 -- -- 54
2019-12-06 15:00:00 15.6 5 Norte 11 Norte 0 -- -- 57
2019-12-06 14:00:00 15.6 3 Nordeste 15 Nordeste 0 -- -- 61
2019-12-06 13:00:00 14.6 8 Sudeste 17 Sudeste 0 -- -- 63
2019-12-06 12:00:00 13 6 Este 14 Sudeste 0 -- -- 67
2019-12-06 11:00:00 9.8 2 Este 8 Sudeste 0 -- -- 80
2019-12-06 10:00:00 6.7 0 Calma 6 Sudeste 0 -- -- 90
2019-12-06 09:00:00 3.7 0 Calma 5 Sur 0 -- -- 94
2019-12-06 08:00:00 4.1 4 Noroeste 6 Noroeste 0 -- -- 93
2019-12-06 07:00:00 6.3 0 Calma 13 Nordeste 0 -- -- 86
2019-12-06 06:00:00 6.2 4 Norte 10 Norte 0 -- -- 88
2019-12-06 05:00:00 5.3 4 Norte 10 Norte 0 -- -- 91
2019-12-06 04:00:00 6.8 4 Este 14 Norte 0 -- -- 85
2019-12-06 03:00:00 6.3 5 Norte 10 Nordeste 0 -- -- 88
2019-12-06 02:00:00 7.5 4 Noroeste 10 Nordeste 0 -- -- 82
2019-12-06 01:00:00 9.1 4 Nordeste 14 Norte 0 -- -- 77
2019-12-06 00:00:00 8.9 5 Norte 19 Nordeste 0 -- -- 79
2019-12-05 23:00:00 10.2 11 Nordeste 28 Nordeste 0 -- -- 74
2019-12-05 22:00:00 11 12 Norte 29 Nordeste 0 -- -- 72
2019-12-05 21:00:00 10.9 12 Norte 26 Norte 0 -- -- 71
2019-12-05 20:00:00 10.4 13 Norte 23 Norte 0 -- -- 72
2019-12-05 19:00:00 10.9 10 Norte 26 Norte 0 -- -- 71
2019-12-05 18:00:00 12 8 Nordeste 19 Nordeste 0 -- -- 68
2019-12-05 17:00:00 14 8 Nordeste 23 Nordeste 0 -- -- 62
2019-12-05 16:00:00 14.9 8 Nordeste 23 Nordeste 0 -- -- 60
2019-12-05 15:00:00 14.6 11 Nordeste 22 Nordeste 0 -- -- 59
2019-12-05 14:00:00 13.9 13 Nordeste 26 Norte 0 -- -- 61
2019-12-05 13:00:00 12.4 13 Nordeste 26 Nordeste 0 -- -- 64
2019-12-05 12:00:00 11.4 15 Nordeste 33 Nordeste 0 -- -- 66
2019-12-05 11:00:00 10.4 17 Nordeste 38 Nordeste 0 -- -- 68
2019-12-05 10:00:00 9.4 14 Nordeste 36 Norte 0 -- -- 70
2019-12-05 09:00:00 8.8 14 Norte 30 Nordeste 0 -- -- 71
2019-12-05 08:00:00 8.7 14 Norte 40 Norte 0 -- -- 71
2019-12-05 07:00:00 8.8 17 Norte 36 Nordeste 0 -- -- 70
2019-12-05 06:00:00 8.9 19 Norte 43 Norte 0 -- -- 69
2019-12-05 05:00:00 8.8 17 Nordeste 36 Nordeste 0 -- -- 68
2019-12-05 04:00:00 9.3 13 Nordeste 37 Norte 0 -- -- 68
2019-12-05 03:00:00 10.3 11 Nordeste 26 Nordeste 0 -- -- 69
2019-12-05 02:00:00 8.9 8 Norte 19 Norte 0 -- -- 77
2019-12-05 01:00:00 9 3 Norte 15 Nordeste 0 -- -- 77
2019-12-05 00:00:00 9.3 5 Norte 16 Norte 0 -- -- 76
2019-12-04 23:00:00 9.6 3 Norte 27 Nordeste 0 -- -- 74
2019-12-04 22:00:00 10.5 16 Norte 28 Nordeste 0 -- -- 71
2019-12-04 21:00:00 10.2 10 Nordeste 23 Nordeste 0 -- -- 72
2019-12-04 20:00:00 10.5 8 Nordeste 32 Norte 0 -- -- 70
2019-12-04 19:00:00 10.7 13 Norte 32 Nordeste 0 -- -- 69
2019-12-04 18:00:00 10.9 5 Norte 26 Norte 0 -- -- 66
2019-12-04 17:00:00 12.2 10 Nordeste 21 Nordeste 0 -- -- 61
2019-12-04 16:00:00 12.4 4 Este 15 Nordeste 0 -- -- 64
2019-12-04 15:00:00 11.8 8 Nordeste 18 Nordeste 0 -- -- 63
2019-12-04 14:00:00 11.8 6 Este 14 Nordeste 0 -- -- 64
2019-12-04 13:00:00 12.2 6 Nordeste 15 Este 0 -- -- 61
2019-12-04 12:00:00 11 5 Nordeste 12 Este 0 -- -- 67
2019-12-04 11:00:00 9.7 0 Calma 6 Norte 0 -- -- 69
2019-12-04 10:00:00 7.5 4 Nordeste 13 Nordeste 0 -- -- 78
2019-12-04 09:00:00 5.7 4 Nordeste 9 Nordeste 0 -- -- 87
2019-12-04 08:00:00 5.8 3 Nordeste 6 Nordeste 0 -- -- 88
2019-12-04 07:00:00 5.9 2 Nordeste 9 Este 0 -- -- 85
2019-12-04 06:00:00 6.7 0 Calma 10 Nordeste 0 -- -- 81
2019-12-04 05:00:00 6.2 6 Norte 14 Norte 0 -- -- 82
2019-12-04 04:00:00 6.1 6 Nordeste 14 Nordeste 0 -- -- 82
2019-12-04 03:00:00 6.4 6 Nordeste 13 Nordeste 0 -- -- 81
2019-12-04 02:00:00 6.5 6 Nordeste 13 Nordeste 0 -- -- 81
2019-12-04 01:00:00 6.4 4 Nordeste 14 Norte 0 -- -- 82
2019-12-04 00:00:00 6.6 5 Nordeste 17 Norte 0 -- -- 79
2019-12-03 23:00:00 5.3 5 Nordeste 12 Norte 0 -- -- 85
2019-12-03 22:00:00 5.8 9 Norte 17 Norte 0 -- -- 81
2019-12-03 21:00:00 5.8 9 Norte 18 Norte 0 -- -- 81
2019-12-03 20:00:00 6.3 8 Norte 15 Norte 0 -- -- 78
2019-12-03 19:00:00 7.2 5 Norte 15 Norte 0 -- -- 75
2019-12-03 18:00:00 9.3 6 Norte 14 Nordeste 0 -- -- 67
2019-12-03 17:00:00 11.8 6 Nordeste 15 Norte 0 -- -- 60
2019-12-03 16:00:00 12.6 7 Nordeste 17 Nordeste 0 -- -- 56
2019-12-03 15:00:00 12.1 8 Nordeste 23 Nordeste 0 -- -- 56
2019-12-03 14:00:00 11.3 11 Nordeste 21 Nordeste 0 -- -- 59
2019-12-03 13:00:00 10.5 10 Nordeste 21 Nordeste 0 -- -- 61
2019-12-03 12:00:00 9.2 10 Nordeste 29 Nordeste 0 -- -- 62
2019-12-03 11:00:00 7.8 17 Nordeste 30 Nordeste 0 -- -- 65
2019-12-03 10:00:00 6.5 9 Nordeste 23 Nordeste 0 -- -- 71
2019-12-03 09:00:00 4.7 9 Norte 17 Norte 0 -- -- 77
2019-12-03 08:00:00 4.8 6 Nordeste 23 Nordeste 0 -- -- 76
2019-12-03 07:00:00 5.2 10 Norte 22 Nordeste 0 -- -- 75
2019-12-03 06:00:00 5.6 9 Nordeste 26 Nordeste 0 -- -- 74
2019-12-03 05:00:00 6 12 Nordeste 30 Nordeste 0 -- -- 74
2019-12-03 04:00:00 6.2 15 Norte 31 Nordeste 0 -- -- 74
2019-12-03 03:00:00 6.6 14 Norte 32 Nordeste 0 -- -- 74
2019-12-03 02:00:00 7.1 14 Norte 32 Nordeste 0 -- -- 73
2019-12-03 01:00:00 7.5 14 Norte 30 Nordeste 0 -- -- 73
2019-12-03 00:00:00 7.7 12 Nordeste 33 Nordeste 0 -- -- 74
2019-12-02 23:00:00 8.5 15 Nordeste 33 Nordeste 0 -- -- 72
2019-12-02 22:00:00 9.3 15 Norte 30 Nordeste 0 -- -- 71
2019-12-02 21:00:00 9.8 14 Nordeste 33 Nordeste 0 -- -- 71
2019-12-02 20:00:00 10.2 12 Nordeste 30 Nordeste 0 -- -- 70
2019-12-02 19:00:00 10.7 13 Nordeste 29 Norte 0 -- -- 67
2019-12-02 18:00:00 11.5 12 Norte 30 Nordeste 0 -- -- 63
2019-12-02 17:00:00 12.4 14 Nordeste 34 Nordeste 0 -- -- 57
2019-12-02 16:00:00 13.4 20 Nordeste 39 Nordeste 0 -- -- 55
2019-12-02 15:00:00 13.3 18 Nordeste 41 Nordeste 0 -- -- 58
2019-12-02 14:00:00 13.2 14 Nordeste 37 Nordeste 0 -- -- 58
2019-12-02 13:00:00 12.3 18 Norte 40 Norte 0 -- -- 62
2019-12-02 12:00:00 11.3 21 Nordeste 41 Nordeste 0 -- -- 66
2019-12-02 11:00:00 10.1 21 Nordeste 39 Nordeste 0 -- -- 69
2019-12-02 10:00:00 9.2 18 Norte 42 Norte 0 -- -- 73
2019-12-02 09:00:00 8.3 16 Nordeste 35 Norte 0 -- -- 76
2019-12-02 08:00:00 8.2 13 Norte 33 Nordeste 0 -- -- 78
2019-12-02 07:00:00 8.3 11 Nordeste 34 Nordeste 0 -- -- 79
2019-12-02 06:00:00 8.9 18 Nordeste 33 Nordeste 0 -- -- 78
2019-12-02 05:00:00 9.1 15 Nordeste 30 Nordeste 0 -- -- 79
2019-12-02 04:00:00 8.8 11 Nordeste 23 Nordeste 0 -- -- 83
2019-12-02 03:00:00 9 10 Nordeste 30 Nordeste 0.2 -- -- 86
2019-12-02 02:00:00 9.1 9 Nordeste 30 Nordeste 0.2 -- -- 86
2019-12-02 01:00:00 9.8 13 Nordeste 35 Nordeste 0 -- -- 78
2019-12-02 00:00:00 9.6 12 Nordeste 36 Nordeste 0 -- -- 79
2019-12-01 23:00:00 9.6 14 Norte 32 Nordeste 0 -- -- 80
2019-12-01 22:00:00 9.5 10 Norte 28 Norte 0 -- -- 85
2019-12-01 21:00:00 6.6 2 Norte 5 Norte 0 -- -- 97
2019-12-01 20:00:00 8 0 Calma 8 Nordeste 0 -- -- 96
2019-12-01 19:00:00 9 3 Nordeste 7 Norte 0 -- -- 97
2019-12-01 18:00:00 9.6 2 Este 7 Noroeste 0 -- -- 95
2019-12-01 17:00:00 10.3 0 Calma 10 Norte 0.2 -- -- 93
2019-12-01 16:00:00 10.9 5 Noroeste 9 Noroeste 0 -- -- 84
2019-12-01 15:00:00 11.6 4 Sudeste 10 Sur 0 -- -- 90
2019-12-01 14:00:00 13.1 4 Sur 8 Oeste 0 -- -- 80
2019-12-01 13:00:00 11.4 0 Calma 13 Oeste 1 -- -- 94
2019-12-01 12:00:00 10.8 4 Oeste 12 Oeste 1 -- -- 95
2019-12-01 11:00:00 10.4 4 Sudoeste 13 Oeste 0 -- -- 97
2019-12-01 10:00:00 10 6 Sur 15 Sur 0 -- -- 98
2019-12-01 09:00:00 9.6 8 Sur 22 Sur 0.2 -- -- 98
2019-12-01 08:00:00 9.5 10 Sur 23 Sur 0 -- -- 99
2019-12-01 07:00:00 9.4 13 Sur 23 Sur 0.8 -- -- 100
2019-12-01 06:00:00 8.7 6 Sur 15 Sur 1.8 -- -- 100
2019-12-01 05:00:00 8.1 5 Sur 9 Sur 0.4 -- -- 100
2019-12-01 04:00:00 7.3 0 Calma 3 Este 0 -- -- 99
2019-12-01 03:00:00 6.6 0 Calma 5 Nordeste 0.2 -- -- 99
2019-12-01 02:00:00 6.4 0 Calma 8 Oeste 0 -- -- 99
2019-12-01 01:00:00 5.4 2 Noroeste 5 Oeste 0 -- -- 98
2019-12-01 00:00:00 6.4 4 Oeste 6 Oeste 0 -- -- 97
2019-11-30 23:00:00 6.7 3 Noroeste 6 Noroeste 0 -- -- 96
2019-11-30 22:00:00 7.6 3 Noroeste 9 Oeste 0 -- -- 95
2019-11-30 21:00:00 8.9 4 Noroeste 11 Noroeste 0 -- -- 94
2019-11-30 20:00:00 10.9 5 Noroeste 9 Noroeste 0 -- -- 96
2019-11-30 19:00:00 11.6 3 Oeste 27 Oeste 0.8 -- -- 94
2019-11-30 18:00:00 12.6 13 Oeste 37 Noroeste 2.6 -- -- 92
2019-11-30 17:00:00 14.1 5 Sudoeste 18 Sudoeste 0 -- -- 97
2019-11-30 16:00:00 14.1 8 Sudoeste 23 Sur 0.2 -- -- 97
2019-11-30 15:00:00 13.9 10 Sudoeste 25 Sur 0.8 -- -- 97
2019-11-30 14:00:00 13.8 11 Sur 31 Sur 0 -- -- 96
2019-11-30 13:00:00 14 14 Sur 27 Sudoeste 0 -- -- 93
2019-11-30 12:00:00 14 13 Sur 23 Sur 0 -- -- 90
2019-11-30 11:00:00 13.5 10 Sur 21 Sur 0.2 -- -- 91
2019-11-30 10:00:00 13.4 7 Sudoeste 17 Sudoeste 0 -- -- 92
2019-11-30 09:00:00 12.9 6 Sudoeste 13 Sudoeste 0 -- -- 93
2019-11-30 08:00:00 13.1 5 Sudoeste 14 Sudoeste 0 -- -- 95
2019-11-30 07:00:00 13.1 5 Sudoeste 16 Sur 0 -- -- 96
2019-11-30 06:00:00 13.3 7 Sudoeste 12 Sudoeste 0 -- -- 97
2019-11-30 05:00:00 13.4 3 Sudoeste 11 Sudoeste 0 -- -- 97
2019-11-30 04:00:00 13.6 3 Sudoeste 9 Sudoeste 0 -- -- 98
2019-11-30 03:00:00 13.7 6 Sudoeste 11 Oeste 0 -- -- 98
2019-11-30 02:00:00 13.7 3 Sur 8 Sudoeste 0 -- -- 99
2019-11-30 01:00:00 13.7 4 Sur 12 Sur 0 -- -- 99
2019-11-30 00:00:00 13.9 4 Sur 8 Sudoeste 0 -- -- 98
2019-11-29 23:00:00 13.8 4 Sur 12 Sudoeste 0.2 -- -- 98
2019-11-29 22:00:00 14 3 Sur 10 Sur 0 -- -- 97
2019-11-29 21:00:00 14.2 3 Sur 8 Sudoeste 0 -- -- 97
2019-11-29 20:00:00 14.4 5 Sur 10 Sur 0 -- -- 98
2019-11-29 19:00:00 14.3 0 Calma 3 Sur 0 -- -- 99
2019-11-29 18:00:00 14.7 0 Calma 4 Sudeste 0.4 -- -- 99
2019-11-29 17:00:00 14.7 3 Sudeste 7 Sudeste 0.2 -- -- 99
2019-11-29 16:00:00 14.7 3 Sudeste 7 Sudeste 0 -- -- 98
2019-11-29 15:00:00 14.6 3 Sudoeste 12 Oeste 0.4 -- -- 98
2019-11-29 14:00:00 14.4 5 Sudoeste 12 Sur 0.6 -- -- 98
2019-11-29 13:00:00 14 4 Sur 8 Sur 0.4 -- -- 98
2019-11-29 12:00:00 13.9 4 Sur 11 Sudoeste 0.2 -- -- 98
2019-11-29 11:00:00 13.7 6 Sur 13 Sudoeste 0.2 -- -- 99
2019-11-29 10:00:00 13.4 3 Sur 12 Sudoeste 0 -- -- 99
2019-11-29 09:00:00 13 4 Sur 13 Sur 0 -- -- 99
2019-11-29 08:00:00 13 6 Sur 15 Sur 0 -- -- 99
2019-11-29 07:00:00 13 7 Sur 14 Sur 0.4 -- -- 99
2019-11-29 06:00:00 13.2 6 Sur 13 Sur 0.6 -- -- 99
2019-11-29 05:00:00 13.1 7 Sur 13 Sudoeste 0.8 -- -- 98
2019-11-29 04:00:00 13.2 5 Sur 13 Sudoeste 0.2 -- -- 97
2019-11-29 03:00:00 13.5 4 Sudoeste 14 Sur 0 -- -- 96
2019-11-29 02:00:00 13.5 6 Sudoeste 14 Sudoeste 0 -- -- 95
2019-11-29 01:00:00 13.4 4 Oeste 15 Sudoeste 0 -- -- 95
2019-11-29 00:00:00 13.3 4 Sur 10 Sur 0 -- -- 95
2019-11-28 23:00:00 13.1 5 Sur 11 Sur 0 -- -- 95
2019-11-28 22:00:00 12.9 3 Sudeste 9 Sur 0 -- -- 95
2019-11-28 21:00:00 13 5 Sur 14 Sur 0 -- -- 94
2019-11-28 20:00:00 13.3 6 Sur 12 Sur 0 -- -- 92
2019-11-28 19:00:00 13.6 4 Sudoeste 9 Sudoeste 0 -- -- 92
2019-11-28 18:00:00 14 3 Sudoeste 12 Sudoeste 0 -- -- 92
2019-11-28 17:00:00 14 5 Sudoeste 15 Sur 0 -- -- 94
2019-11-28 16:00:00 13.6 5 Sudoeste 18 Sur 0 -- -- 96
2019-11-28 15:00:00 12.8 8 Sudoeste 24 Sudoeste 0.8 -- -- 98
2019-11-28 14:00:00 12.4 9 Sur 20 Sur 1 -- -- 98
2019-11-28 13:00:00 12.3 8 Sur 21 Sur 0.6 -- -- 97
2019-11-28 12:00:00 12.2 9 Sur 19 Sudoeste 0 -- -- 96
2019-11-28 11:00:00 11.6 10 Sur 19 Sur 0 -- -- 99
2019-11-28 10:00:00 10.9 4 Sur 9 Sudeste 0 -- -- 100
2019-11-28 09:00:00 10.5 3 Sudeste 8 Sudeste 0.6 -- -- 99
2019-11-28 08:00:00 10.3 3 Sur 8 Sur 0.2 -- -- 99
2019-11-28 07:00:00 10.4 4 Sur 9 Sudoeste 0.2 -- -- 99
2019-11-28 06:00:00 10.2 2 Sudoeste 4 Sur 0 -- -- 99
2019-11-28 05:00:00 9.8 0 Calma 4 Norte 0 -- -- 99
2019-11-28 04:00:00 9.6 0 Calma 4 Este 0 -- -- 99
2019-11-28 03:00:00 9.3 0 Calma 8 Este 0 -- -- 99
2019-11-28 02:00:00 8.6 2 Norte 6 Nordeste 0 -- -- 99
2019-11-28 01:00:00 6.8 0 Calma 3 Norte 0 -- -- 98
2019-11-28 00:00:00 7 3 Noroeste 5 Oeste 0 -- -- 97
2019-11-27 23:00:00 7.9 2 Sudoeste 6 Oeste 0 -- -- 96
2019-11-27 22:00:00 9.2 3 Sudoeste 9 Sudoeste 0 -- -- 95
2019-11-27 21:00:00 9.2 0 Calma 5 Sudoeste 0 -- -- 94
2019-11-27 20:00:00 11.1 0 Calma 9 Sudoeste 0 -- -- 88
2019-11-27 19:00:00 12.5 6 Oeste 10 Oeste 0 -- -- 84
2019-11-27 18:00:00 13.4 5 Sudoeste 13 Sudoeste 0 -- -- 80
2019-11-27 17:00:00 14 6 Sudoeste 17 Oeste 0 -- -- 81
2019-11-27 16:00:00 13.4 8 Oeste 28 Oeste 0 -- -- 83
2019-11-27 15:00:00 13.5 13 Oeste 23 Oeste 0 -- -- 85
2019-11-27 14:00:00 12.9 12 Oeste 20 Sudoeste 0 -- -- 87
2019-11-27 06:00:00 -- -- -- -- -- -- -- -- --
2019-11-27 05:00:00 9.5 4 Oeste 9 Oeste 0 -- -- 97
2019-11-27 04:00:00 10.7 5 Oeste 10 Oeste 0 -- -- 98
2019-11-27 03:00:00 11.3 8 Oeste 21 Oeste 0 -- -- 98
2019-11-27 02:00:00 12 11 Oeste 20 Oeste 0 -- -- 97
2019-11-27 01:00:00 12.3 4 Sudoeste 17 Sudoeste 0 -- -- 97
2019-11-27 00:00:00 12.8 10 Sudoeste 22 Sudoeste 0.6 -- -- 97
2019-11-26 23:00:00 13.2 10 Oeste 22 Sudoeste 0.6 -- -- 96
2019-11-26 22:00:00 13.6 10 Sudoeste 21 Sudoeste 0 -- -- 94
2019-11-26 21:00:00 13.4 7 Sudoeste 21 Sur 0 -- -- 96
2019-11-26 20:00:00 14 8 Sur 22 Sudoeste 0 -- -- 97
2019-11-26 19:00:00 14.4 11 Sur 24 Sur 0 -- -- 98
2019-11-26 18:00:00 14.7 10 Sudoeste 26 Sudoeste 5.6 -- -- 97
2019-11-26 17:00:00 14.9 15 Sur 30 Sur 0.2 -- -- 96
2019-11-26 16:00:00 14.4 10 Sur 20 Sur 0.4 -- -- 99
2019-11-26 15:00:00 14.3 8 Sur 21 Sur 1.6 -- -- 99
2019-11-26 14:00:00 14.4 9 Sur 28 Sur 2.2 -- -- 98
2019-11-26 13:00:00 14.2 11 Sur 22 Sur 0.2 -- -- 98
2019-11-26 12:00:00 13.9 11 Sur 16 Sur 0.8 -- -- 100
2019-11-26 11:00:00 13.5 9 Sudeste 14 Sudeste 1.2 -- -- 100
2019-11-26 10:00:00 13.1 5 Sur 11 Sur 0.2 -- -- 100
2019-11-26 09:00:00 12.4 4 Sudeste 10 Sudeste 0 -- -- 100
2019-11-26 08:00:00 12.1 3 Sudeste 12 Sudeste 0.4 -- -- 100
2019-11-26 07:00:00 11.7 4 Sur 8 Sudeste 0.2 -- -- 99
2019-11-26 06:00:00 11.6 5 Sudeste 9 Sudeste 1 -- -- 99
2019-11-26 05:00:00 11.4 3 Sudeste 5 Sudeste 0.4 -- -- 99
2019-11-26 04:00:00 11.3 0 Calma 4 Sudeste 0.2 -- -- 99
2019-11-26 03:00:00 10.9 0 Calma 4 Norte 0 -- -- 99
2019-11-26 02:00:00 9.5 0 Calma 4 Oeste 0 -- -- 98
2019-11-26 01:00:00 8.9 2 Noroeste 4 Norte 0 -- -- 97
2019-11-26 00:00:00 10.1 3 Oeste 5 Oeste 0 -- -- 96
2019-11-25 23:00:00 10.6 0 Calma 4 Sur 0 -- -- 95
2019-11-25 22:00:00 12.7 0 Calma 4 Oeste 0 -- -- 93
2019-11-25 21:00:00 13.2 0 Calma 6 Oeste 0 -- -- 93
2019-11-25 20:00:00 14.2 0 Calma 7 Sudoeste 0 -- -- 90
2019-11-25 19:00:00 14.3 3 Sudoeste 6 Oeste 0 -- -- 90
2019-11-25 18:00:00 15.3 3 Sur 10 Sudoeste 0 -- -- 88
2019-11-25 17:00:00 15.6 5 Sudoeste 17 Sudoeste 0 -- -- 86
2019-11-25 16:00:00 16.3 9 Sudoeste 18 Sur 0 -- -- 84
2019-11-25 15:00:00 16.2 9 Sudoeste 20 Oeste 0 -- -- 81
2019-11-25 14:00:00 15.4 9 Oeste 17 Oeste 0 -- -- 86
2019-11-25 13:00:00 14.6 9 Oeste 18 Oeste 0 -- -- 91
2019-11-25 12:00:00 13.8 4 Noroeste 12 Sudoeste 0 -- -- 99
2019-11-25 11:00:00 12.8 3 Noroeste 5 Oeste 0 -- -- 99
2019-11-25 10:00:00 12.2 0 Calma 9 Este 0 -- -- 99
2019-11-25 09:00:00 12 0 Calma 5 Sudoeste 0 -- -- 99
2019-11-25 08:00:00 11.8 4 Norte 8 Nordeste 0.2 -- -- 99
2019-11-25 07:00:00 11.7 2 Norte 5 Nordeste 0.6 -- -- 99
2019-11-25 06:00:00 11.8 0 Calma 6 Este 0 -- -- 99
2019-11-25 05:00:00 11.6 3 Nordeste 6 Norte 0.6 -- -- 99
2019-11-25 04:00:00 11.7 0 Calma 5 Nordeste 2.4 -- -- 99
2019-11-25 03:00:00 11.5 3 Nordeste 6 Sudeste 2.4 -- -- 99
2019-11-25 02:00:00 11.4 3 Sudeste 6 Sudeste 2 -- -- 98
2019-11-25 01:00:00 11 3 Sudeste 9 Este 2 -- -- 98
2019-11-25 00:00:00 10.8 3 Este 9 Nordeste 1.8 -- -- 97
2019-11-24 23:00:00 11 2 Sudeste 14 Sudoeste 0.6 -- -- 96
2019-11-24 22:00:00 11 6 Sudoeste 12 Sudoeste 0.2 -- -- 95
2019-11-24 21:00:00 10.9 2 Noroeste 6 Este 0 -- -- 92
2019-11-24 20:00:00 11.2 2 Sudeste 4 Sudeste 0 -- -- 90
2019-11-24 19:00:00 11.3 0 Calma 5 Sudeste 0 -- -- 89
2019-11-24 18:00:00 11.5 0 Calma 13 Noroeste 0 -- -- 87
2019-11-24 17:00:00 12.1 9 Oeste 19 Oeste 0 -- -- 83
2019-11-24 16:00:00 12.3 8 Oeste 17 Oeste 0 -- -- 78
2019-11-24 15:00:00 12.2 9 Oeste 18 Oeste 0 -- -- 75
2019-11-24 14:00:00 12.4 9 Oeste 18 Oeste 0 -- -- 73
2019-11-24 13:00:00 12 4 Sur 13 Sur 0 -- -- 71
2019-11-24 12:00:00 10.9 6 Sudeste 9 Norte 0 -- -- 81
2019-11-24 11:00:00 8.9 4 Noroeste 7 Norte 0 -- -- 80
2019-11-24 10:00:00 6.6 3 Oeste 9 Oeste 0 -- -- 95
2019-11-24 09:00:00 3.5 2 Norte 8 Oeste 0 -- -- 97
2019-11-24 08:00:00 2.9 0 Calma 10 Sudeste 0 -- -- 95
2019-11-24 07:00:00 3.5 0 Calma 7 Noroeste 0 -- -- 93
2019-11-24 06:00:00 4.1 3 Sudeste 9 Noroeste 0 -- -- 93
2019-11-24 05:00:00 4.3 4 Oeste 9 Noroeste 0 -- -- 94
2019-11-24 04:00:00 3.2 4 Norte 6 Norte 0 -- -- 96
2019-11-24 03:00:00 3.8 3 Sudeste 13 Sur 0 -- -- 93
2019-11-24 02:00:00 4.5 3 Norte 8 Norte 0 -- -- 93
2019-11-24 01:00:00 5.5 3 Nordeste 10 Este 0 -- -- 89
2019-11-24 00:00:00 7.7 8 Oeste 15 Oeste 0 -- -- 82
2019-11-23 23:00:00 8.1 9 Noroeste 18 Oeste 0 -- -- 82
2019-11-23 22:00:00 8.7 8 Oeste 19 Noroeste 0 -- -- 78
2019-11-23 21:00:00 8.2 7 Noroeste 11 Noroeste 0 -- -- 79
2019-11-23 20:00:00 9.4 3 Sur 22 Noroeste 0 -- -- 73
2019-11-23 19:00:00 10.6 11 Noroeste 19 Noroeste 0 -- -- 67
2019-11-23 18:00:00 11.7 7 Noroeste 23 Noroeste 0 -- -- 63
2019-11-23 17:00:00 13.1 16 Noroeste 31 Oeste 0 -- -- 55
2019-11-23 16:00:00 13.3 13 Noroeste 26 Oeste 0 -- -- 54
2019-11-23 15:00:00 13.2 11 Noroeste 26 Oeste 0 -- -- 56
2019-11-23 14:00:00 13.1 12 Noroeste 24 Oeste 0 -- -- 58
2019-11-23 13:00:00 12.6 9 Noroeste 20 Noroeste 0 -- -- 60
2019-11-23 12:00:00 12.1 13 Noroeste 25 Noroeste 0 -- -- 61
2019-11-23 11:00:00 11.3 14 Noroeste 29 Noroeste 0 -- -- 66
2019-11-23 10:00:00 10.6 17 Oeste 27 Sudoeste 0 -- -- 64
2019-11-23 09:00:00 9.3 12 Oeste 32 Oeste 0 -- -- 68
2019-11-23 08:00:00 8.7 15 Noroeste 28 Noroeste 0 -- -- 70
2019-11-23 07:00:00 8.6 18 Noroeste 29 Noroeste 0 -- -- 73
2019-11-23 06:00:00 8.2 14 Noroeste 28 Noroeste 0 -- -- 75
2019-11-23 05:00:00 7.2 7 Noroeste 12 Noroeste 0 -- -- 88
2019-11-23 04:00:00 7.4 5 Sudeste 14 Sudeste 0 -- -- 94
2019-11-23 03:00:00 7.9 4 Oeste 14 Oeste 0 -- -- 88
2019-11-23 02:00:00 8.6 12 Oeste 17 Sudoeste 0 -- -- 88
2019-11-23 01:00:00 9 10 Noroeste 27 Oeste 1.2 -- -- 88
2019-11-23 00:00:00 10.1 9 Noroeste -- -- 0 -- -- 92
2019-11-22 23:00:00 10.4 13 Oeste 23 Oeste 1.4 -- -- 90
2019-11-22 22:00:00 11.2 12 Oeste 24 Oeste 0 -- -- 86
2019-11-22 21:00:00 11 9 Sudoeste 24 Oeste 0 -- -- 83
2019-11-22 20:00:00 11.1 12 Oeste 30 Oeste 0 -- -- 79
2019-11-22 19:00:00 11.7 13 Oeste 34 Oeste 0 -- -- 81
2019-11-22 18:00:00 13.6 15 Oeste 36 Oeste 0 -- -- 70
2019-11-22 17:00:00 14.7 16 Oeste 41 Oeste 0 -- -- 70
2019-11-22 16:00:00 15.4 22 Oeste 39 Sudoeste 0 -- -- 66
2019-11-22 15:00:00 16 18 Oeste 32 Oeste 0 -- -- 78
2019-11-22 14:00:00 15.8 12 Sudoeste 29 Sudoeste 0 -- -- 88
2019-11-22 13:00:00 14.2 14 Sudoeste 31 Sudoeste 0.2 -- -- 97
2019-11-22 12:00:00 12.2 16 Sur 37 Sudeste 2.2 -- -- 98
2019-11-22 11:00:00 11.2 10 Sur 21 Sur 1.6 -- -- 98
2019-11-22 10:00:00 10.7 14 Sur 25 Sur 1 -- -- 98
2019-11-22 09:00:00 10.5 15 Sur 28 Sudeste 0.8 -- -- 99
2019-11-22 08:00:00 10.5 16 Sur 26 Sur 1.2 -- -- 99
2019-11-22 07:00:00 9.9 8 Sudeste 13 Sudeste 4.2 -- -- 99
2019-11-22 06:00:00 10 6 Sur 10 Sur 2 -- -- 98
2019-11-22 05:00:00 10.1 8 Sur 17 Sur 1.4 -- -- 98
2019-11-22 04:00:00 10.1 7 Sudeste 11 Sur 0.4 -- -- 98
2019-11-22 03:00:00 10.1 5 Sur 14 Sur 0 -- -- 98
2019-11-22 02:00:00 9.7 7 Sur 11 Sudeste 0 -- -- 97
2019-11-22 01:00:00 9.5 0 Calma 7 Sudeste 0 -- -- 98
2019-11-22 00:00:00 9.1 0 Calma 5 Sudeste 0 -- -- 97
2019-11-21 23:00:00 9.1 2 Sudeste 5 Sudeste 0 -- -- 97
2019-11-21 22:00:00 8.7 0 Calma 6 Sudeste 0 -- -- 97
2019-11-21 21:00:00 8.9 5 Sudeste 12 Sur 0 -- -- 96
2019-11-21 20:00:00 8.7 0 Calma 4 Sudeste 0 -- -- 96
2019-11-21 19:00:00 9.1 0 Calma 4 Sudeste 0 -- -- 93
2019-11-21 18:00:00 10.9 3 Sur 13 Sur 0 -- -- 89
2019-11-21 17:00:00 12 5 Sur 13 Sudeste 0 -- -- 85
2019-11-21 16:00:00 12.7 7 Sur 13 Sur 0 -- -- 83
2019-11-21 15:00:00 12 3 Sur 9 Sudeste 0 -- -- 89
2019-11-21 14:00:00 11.9 4 Sudoeste 8 Oeste 0 -- -- 87
2019-11-21 13:00:00 10.7 3 Sur 6 Sur 0.2 -- -- 95
2019-11-21 12:00:00 9.4 2 Sudeste 5 Sudeste 0 -- -- 97
2019-11-21 11:00:00 8.7 3 Sudeste 5 Sur 0 -- -- 98
2019-11-21 10:00:00 8.1 0 Calma 4 Sudeste 0.4 -- -- 98
2019-11-21 09:00:00 7.8 3 Sudeste 6 Sudeste 0 -- -- 98
2019-11-21 08:00:00 -- -- -- -- -- -- -- -- --
2019-11-21 07:00:00 -- -- -- -- -- -- -- -- --
2019-11-21 06:00:00 -- -- -- -- -- -- -- -- --
2019-11-21 05:00:00 -- -- -- -- -- -- -- -- --
2019-11-21 04:00:00 -- -- -- -- -- -- -- -- --
2019-11-21 03:00:00 -- -- -- -- -- -- -- -- --
2019-11-21 02:00:00 -- -- -- -- -- -- -- -- --
2019-11-21 01:00:00 -- -- -- -- -- -- -- -- --
2019-11-21 00:00:00 -- -- -- -- -- -- -- -- --
2019-11-20 23:00:00 -- -- -- -- -- -- -- -- --
2019-11-20 22:00:00 -- -- -- -- -- -- -- -- --
2019-11-20 21:00:00 -- -- -- -- -- -- -- -- --
2019-11-20 20:00:00 -- -- -- -- -- -- -- -- --
2019-11-20 19:00:00 7.4 0 Calma 8 Sudeste 0 -- -- 97
2019-11-20 18:00:00 7.5 3 Sudeste 6 Sudeste 0 -- -- 97
2019-11-20 17:00:00 7.4 3 Sudeste 14 Sur 0.2 -- -- 97
2019-11-20 16:00:00 7.3 6 Sudeste 12 Sudeste 2 -- -- 97
2019-11-20 15:00:00 7.6 6 Sudeste 18 Este 0.4 -- -- 95
2019-11-20 14:00:00 7.6 6 Sudeste 13 Sudeste 0.2 -- -- 96
2019-11-20 13:00:00 6.9 9 Sudeste 19 Sudeste 1.8 -- -- 98
2019-11-20 12:00:00 6.9 5 Sudeste 8 Sudeste 2.6 -- -- 97
2019-11-20 11:00:00 6.7 4 Sudeste 8 Sudeste 2 -- -- 97
2019-11-20 10:00:00 6.7 5 Sudeste 13 Este 2.6 -- -- 96
2019-11-20 09:00:00 6.5 3 Este 13 Este 2.8 -- -- 96
2019-11-20 08:00:00 6.5 0 Calma 9 Sur 3.2 -- -- 95
2019-11-20 07:00:00 6.5 5 Sudeste 15 Sudeste 1 -- -- 95
2019-11-20 06:00:00 7.1 5 Sudeste 9 Sur 0.8 -- -- 91
2019-11-20 05:00:00 7.5 0 Calma 3 Sudeste 0.2 -- -- 92
2019-11-20 04:00:00 7.7 0 Calma 2 Norte 0 -- -- 90
2019-11-20 03:00:00 7.9 0 Calma 5 Sudeste 0 -- -- 87
2019-11-20 02:00:00 7.9 2 Este 5 Sudeste 0 -- -- 85
2019-11-20 01:00:00 7.7 3 Este 6 Nordeste 0 -- -- 86
2019-11-20 00:00:00 7.3 0 Calma 5 Nordeste 0 -- -- 86
2019-11-19 23:00:00 7.9 0 Calma 5 Nordeste 0 -- -- 85
2019-11-19 22:00:00 8.5 3 Nordeste 6 Nordeste 0 -- -- 81
2019-11-19 21:00:00 8.5 0 Calma 5 Norte 0 -- -- 83
2019-11-19 20:00:00 8.5 2 Nordeste 3 Nordeste 0 -- -- 87
2019-11-19 19:00:00 8.8 0 Calma -- -- 0 -- -- 84
2019-11-19 18:00:00 9.5 0 Calma 2 Noroeste 0 -- -- 78
2019-11-19 17:00:00 10.1 0 Calma 8 Sudeste 0 -- -- 71
2019-11-19 16:00:00 10.2 3 Sudeste 8 Sur 0 -- -- 70
2019-11-19 15:00:00 10.2 2 Sudeste 8 Sudeste 0 -- -- 70
2019-11-19 14:00:00 9.5 3 Sur 9 Sur 0 -- -- 72
2019-11-19 13:00:00 8.9 5 Sudeste 9 Este 0 -- -- 73
2019-11-19 12:00:00 7.8 3 Sur 5 Sur 0 -- -- 76
2019-11-19 11:00:00 6.6 0 Calma 4 Sudeste 0 -- -- 84
2019-11-19 10:00:00 4.8 2 Oeste 9 Oeste 0 -- -- 92
2019-11-19 09:00:00 1.6 4 Noroeste 5 Noroeste 0 -- -- 96
2019-11-19 08:00:00 0.7 2 Norte 4 Norte 0 -- -- 95
2019-11-19 07:00:00 1.1 2 Noroeste 3 Norte 0 -- -- 94
2019-11-19 06:00:00 2.1 3 Norte 5 Nordeste 0 -- -- 93
2019-11-19 05:00:00 2.5 0 Calma 6 Sur 0 -- -- 90
2019-11-19 04:00:00 3.5 3 Noroeste 7 Norte 0 -- -- 87
2019-11-19 03:00:00 3.4 2 Norte 9 Norte 0 -- -- 90
2019-11-19 02:00:00 2.8 3 Norte 8 Oeste 0 -- -- 91
2019-11-19 01:00:00 4.1 5 Sudoeste 12 Sudoeste 0 -- -- 85
2019-11-19 00:00:00 5 0 Calma 11 Sudeste 0 -- -- 81
2019-11-18 23:00:00 8.2 7 Norte 16 Norte 0 -- -- 67
2019-11-18 22:00:00 8.1 10 Noroeste 14 Noroeste 0 -- -- 69
2019-11-18 21:00:00 7.8 8 Noroeste 12 Noroeste 0 -- -- 72
2019-11-18 20:00:00 8 7 Norte 10 Norte 0 -- -- 73
2019-11-18 19:00:00 8.7 5 Norte 9 Norte 0 -- -- 72
2019-11-18 18:00:00 11.5 6 Norte 13 Nordeste 0 -- -- 62
2019-11-18 17:00:00 13.8 8 Nordeste 17 Este 0 -- -- 53
2019-11-18 16:00:00 14.5 5 Norte 18 Nordeste 0 -- -- 52
2019-11-18 15:00:00 14.2 6 Norte 17 Este 0 -- -- 54
2019-11-18 14:00:00 13.6 8 Nordeste 19 Nordeste 0 -- -- 58
2019-11-18 13:00:00 12.3 9 Nordeste 17 Nordeste 0 -- -- 60
2019-11-18 12:00:00 10.9 5 Norte 17 Nordeste 0 -- -- 64
2019-11-18 11:00:00 9.5 7 Norte 24 Norte 0 -- -- 73
2019-11-18 10:00:00 7.8 13 Norte 24 Nordeste 0 -- -- 78
2019-11-18 09:00:00 5.5 8 Nordeste 14 Nordeste 0 -- -- 89
2019-11-18 08:00:00 3 3 Norte 9 Oeste 0 -- -- 93
2019-11-18 07:00:00 2.3 4 Norte 5 Norte 0 -- -- 95
2019-11-18 06:00:00 3.5 4 Noroeste 8 Oeste 0 -- -- 93
2019-11-18 05:00:00 4.9 3 Este 9 Norte 0 -- -- 87
2019-11-18 04:00:00 6.8 8 Norte 18 Norte 0 -- -- 80
2019-11-18 03:00:00 5.4 0 Calma 9 Sudeste 0 -- -- 86
2019-11-18 02:00:00 6.2 5 Sudeste 22 Norte 0 -- -- 83
2019-11-18 01:00:00 7.8 13 Norte 26 Norte 0 -- -- 76
2019-11-18 00:00:00 7.6 15 Noroeste 23 Noroeste 0 -- -- 80
2019-11-17 23:00:00 7.8 7 Noroeste 30 Noroeste 0 -- -- 85
2019-11-17 22:00:00 8.6 15 Noroeste 23 Noroeste 0 -- -- 84
2019-11-17 21:00:00 7.5 7 Nordeste 16 Noroeste 0 -- -- 97
2019-11-17 20:00:00 8.4 0 Calma 14 Nordeste 0.2 -- -- 96
2019-11-17 19:00:00 8.5 3 Norte 5 Nordeste 0 -- -- 96
2019-11-17 18:00:00 8.6 2 Sudeste 4 Sudeste 0.8 -- -- 96
2019-11-17 17:00:00 8.6 0 Calma 7 Oeste 2 -- -- 95
2019-11-17 16:00:00 8.6 2 Oeste 9 Oeste 0.8 -- -- 94
2019-11-17 15:00:00 8.2 3 Oeste 8 Oeste 0 -- -- 94
2019-11-17 14:00:00 8.2 3 Sudoeste 9 Sudoeste 0 -- -- 93
2019-11-17 13:00:00 7.7 5 Sur 10 Sur 0 -- -- 95
2019-11-17 12:00:00 7.3 3 Sur 6 Sudeste 0 -- -- 95
2019-11-17 11:00:00 6.9 3 Sudeste 5 Sudeste 0.2 -- -- 96
2019-11-17 10:00:00 6.4 0 Calma 4 Sudeste 0 -- -- 97
2019-11-17 09:00:00 6 2 Este 4 Sudeste 0 -- -- 97
2019-11-17 08:00:00 5.9 2 Sudeste 4 Este 0.2 -- -- 96
2019-11-17 07:00:00 5.9 0 Calma 4 Nordeste 0.4 -- -- 95
2019-11-17 06:00:00 5.8 0 Calma 6 Oeste 0.6 -- -- 95
2019-11-17 05:00:00 5.6 5 Oeste 12 Oeste 0 -- -- 92
2019-11-17 04:00:00 5.2 4 Sudeste 11 Noroeste 0 -- -- 83
2019-11-17 03:00:00 5.9 5 Noroeste 9 Oeste 0 -- -- 80
2019-11-17 02:00:00 4.5 0 Calma 5 Norte 0 -- -- 83
2019-11-17 01:00:00 6 2 Oeste 14 Sudoeste 0 -- -- 74
2019-11-17 00:00:00 6.3 3 Sudeste 15 Noroeste 0 -- -- 73
2019-11-16 23:00:00 6.9 3 Sudeste 13 Noroeste 0 -- -- 70
2019-11-16 22:00:00 8.7 5 Noroeste 15 Noroeste 0 -- -- 63
2019-11-16 21:00:00 8.7 4 Noroeste 14 Noroeste 0 -- -- 62
2019-11-16 20:00:00 9.2 9 Noroeste 15 Noroeste 0 -- -- 60
2019-11-16 19:00:00 9.4 9 Noroeste 13 Noroeste 0 -- -- 60
2019-11-16 18:00:00 9.8 4 Norte 21 Noroeste 0 -- -- 59
2019-11-16 17:00:00 11.3 10 Noroeste 21 Noroeste 0 -- -- 53
2019-11-16 16:00:00 11.8 10 Noroeste 26 Noroeste 0 -- -- 54
2019-11-16 15:00:00 11.8 13 Noroeste 25 Noroeste 0 -- -- 53
2019-11-16 14:00:00 10.8 12 Noroeste 20 Oeste 0 -- -- 56
2019-11-16 13:00:00 10.9 5 Oeste 11 Oeste 0 -- -- 54
2019-11-16 12:00:00 10.2 6 Norte 13 Norte 0 -- -- 59
2019-11-16 11:00:00 8.2 6 Norte 12 Norte 0 -- -- 64
2019-11-16 10:00:00 6 4 Norte 10 Nordeste 0 -- -- 74
2019-11-16 09:00:00 1.4 4 Norte 8 Nordeste 0 -- -- 93
2019-11-16 08:00:00 0.5 3 Noroeste 6 Noroeste 0 -- -- 89
2019-11-16 07:00:00 1.3 4 Noroeste 7 Norte 0 -- -- 89
2019-11-16 06:00:00 1.5 5 Norte 8 Norte 0 -- -- 89
2019-11-16 05:00:00 2.5 2 Noroeste 12 Norte 0 -- -- 84
2019-11-16 04:00:00 3.1 4 Norte 10 Nordeste 0 -- -- 81
2019-11-16 03:00:00 3.8 7 Norte 12 Noroeste 0 -- -- 80
2019-11-16 02:00:00 3.5 2 Oeste 11 Noroeste 0 -- -- 80
2019-11-16 01:00:00 4.3 5 Norte 12 Norte 0 -- -- 77
2019-11-16 00:00:00 5.9 10 Norte 26 Norte 0 -- -- 70
2019-11-15 23:00:00 5.8 6 Noroeste 27 Norte 0 -- -- 70
2019-11-15 22:00:00 6.9 14 Noroeste 33 Noroeste 0 -- -- 64
2019-11-15 21:00:00 7.3 20 Norte 32 Norte 0 -- -- 62
2019-11-15 20:00:00 7 13 Norte 21 Noroeste 0 -- -- 62
2019-11-15 19:00:00 6.6 12 Noroeste 15 Noroeste 0 -- -- 62
2019-11-15 18:00:00 8.2 11 Noroeste 30 Noroeste 0 -- -- 54
2019-11-15 17:00:00 9.6 19 Norte 35 Norte 0 -- -- 49
2019-11-15 16:00:00 10.3 24 Norte 36 Norte 0 -- -- 48
2019-11-15 15:00:00 11 21 Noroeste 37 Noroeste 0 -- -- 47
2019-11-15 14:00:00 10.8 19 Norte 40 Noroeste 0 -- -- 49
2019-11-15 13:00:00 9.9 21 Norte 30 Noroeste 0 -- -- 54
2019-11-15 12:00:00 8.8 7 Nordeste 23 Norte 0 -- -- 61
2019-11-15 11:00:00 7.5 4 Nordeste 13 Norte 0 -- -- 65
2019-11-15 10:00:00 6.5 8 Norte 27 Norte 0 -- -- 69
2019-11-15 09:00:00 6.1 15 Norte 31 Norte 0 -- -- 68
2019-11-15 08:00:00 5.7 13 Noroeste 28 Norte 0 -- -- 68
2019-11-15 07:00:00 6 18 Noroeste 30 Noroeste 0 -- -- 66
2019-11-15 06:00:00 6.3 15 Noroeste 30 Noroeste 0 -- -- 63
2019-11-15 05:00:00 5.8 11 Noroeste 21 Noroeste 0 -- -- 66
2019-11-15 04:00:00 6.2 4 Noroeste 28 Noroeste 0 -- -- 64
2019-11-15 03:00:00 6.7 15 Noroeste 31 Noroeste 0 -- -- 62
2019-11-15 02:00:00 7.3 16 Noroeste 24 Noroeste 0 -- -- 64
2019-11-15 01:00:00 7.5 10 Noroeste 34 Noroeste 0 -- -- 65
2019-11-15 00:00:00 8.1 21 Noroeste 29 Noroeste 0 -- -- 61
2019-11-14 23:00:00 8.5 8 Oeste 15 Oeste 0 -- -- 65
2019-11-14 22:00:00 8.9 5 Oeste 21 Sur 0 -- -- 64
2019-11-14 21:00:00 9.5 9 Sudoeste 33 Norte 0 -- -- 62
2019-11-14 20:00:00 9.7 23 Noroeste 41 Noroeste 0 -- -- 61
2019-11-14 19:00:00 9.5 18 Noroeste 42 Noroeste 0 -- -- 66
2019-11-14 18:00:00 10.7 29 Noroeste 48 Oeste 0 -- -- 63
2019-11-14 17:00:00 10 24 Oeste 41 Noroeste 0 -- -- 73
2019-11-14 16:00:00 10.4 23 Noroeste 49 Noroeste 0.2 -- -- 68
2019-11-14 15:00:00 10.6 25 Noroeste 49 Oeste 0 -- -- 62
2019-11-14 14:00:00 11.5 28 Oeste 45 Noroeste 0 -- -- 54
2019-11-14 13:00:00 11.1 28 Noroeste 48 Noroeste 0 -- -- 55
2019-11-14 12:00:00 11 19 Noroeste 47 Oeste 0 -- -- 57
2019-11-14 11:00:00 9.8 20 Noroeste 36 Noroeste 0 -- -- 66
2019-11-14 10:00:00 8.6 13 Noroeste 22 Noroeste 0 -- -- 74
2019-11-14 09:00:00 8 7 Noroeste 30 Norte 0 -- -- 80
2019-11-14 08:00:00 9.1 19 Noroeste 32 Noroeste 0 -- -- 77
2019-11-14 07:00:00 9.5 13 Noroeste 25 Noroeste 0.6 -- -- 92
2019-11-14 06:00:00 9.2 2 Noroeste 9 Noroeste 1.2 -- -- 94
2019-11-14 05:00:00 8.9 0 Calma 16 Oeste 0.2 -- -- 91
2019-11-14 04:00:00 8.7 5 Oeste 14 Oeste 0 -- -- 85
2019-11-14 03:00:00 7.9 5 Oeste 14 Oeste 0 -- -- 86
2019-11-14 02:00:00 7.7 8 Oeste 12 Oeste 0 -- -- 85
2019-11-14 01:00:00 8.3 4 Noroeste 10 Noroeste 0 -- -- 83
2019-11-14 00:00:00 9.7 3 Oeste 22 Norte 0 -- -- 73
2019-11-13 23:00:00 11.6 15 Norte 24 Norte 0 -- -- 66
2019-11-13 22:00:00 11.3 6 Noroeste 13 Oeste 0 -- -- 77
2019-11-13 21:00:00 11.8 8 Oeste 14 Oeste 0 -- -- 78
2019-11-13 20:00:00 13.6 3 Noroeste 17 Oeste 0 -- -- 73
2019-11-13 19:00:00 14.6 9 Oeste 16 Oeste 0 -- -- 71
2019-11-13 18:00:00 17.4 4 Norte 12 Noroeste 0 -- -- 64
2019-11-13 17:00:00 19.3 7 Noroeste 25 Noroeste 0 -- -- 52
2019-11-13 16:00:00 19.4 12 Noroeste 39 Oeste 0 -- -- 52
2019-11-13 15:00:00 19.6 12 Noroeste 25 Noroeste 0 -- -- 52
2019-11-13 14:00:00 19.1 15 Noroeste 27 Noroeste 0 -- -- 55
2019-11-13 13:00:00 18.2 14 Noroeste 27 Noroeste 0 -- -- 60
2019-11-13 12:00:00 17 15 Noroeste 28 Noroeste 0 -- -- 69
2019-11-13 11:00:00 15.1 12 Oeste 18 Oeste 0 -- -- 81
2019-11-13 10:00:00 13.7 8 Oeste 19 Oeste 0 -- -- 91
2019-11-13 09:00:00 12.7 10 Oeste 22 Oeste 0 -- -- 95
2019-11-13 08:00:00 12.6 8 Oeste 15 Sudoeste 0 -- -- 97
2019-11-13 07:00:00 12.7 8 Oeste 18 Oeste 0 -- -- 96
2019-11-13 06:00:00 12.8 10 Oeste 17 Oeste 0.4 -- -- 96
2019-11-13 05:00:00 12.5 6 Sudoeste 25 Oeste 0.4 -- -- 96
2019-11-13 04:00:00 12.3 8 Sudoeste 20 Oeste 0 -- -- 95
2019-11-13 03:00:00 12 10 Oeste 16 Sudoeste 0.2 -- -- 94
2019-11-13 02:00:00 12 4 Sur 9 Oeste 0 -- -- 89
2019-11-13 01:00:00 12.1 3 Sudoeste 11 Sudoeste 0 -- -- 89
2019-11-13 00:00:00 12.3 6 Sudoeste 15 Sudoeste 0 -- -- 88
2019-11-12 23:00:00 12.4 6 Oeste 20 Sudoeste 0 -- -- 85
2019-11-12 22:00:00 12.7 12 Oeste 26 Oeste 0 -- -- 82
2019-11-12 21:00:00 13 12 Oeste 22 Oeste 0 -- -- 79
2019-11-12 20:00:00 13.5 11 Oeste 24 Oeste 0 -- -- 74
2019-11-12 19:00:00 14.2 4 Sudoeste 13 Sudoeste 0 -- -- 65
2019-11-12 18:00:00 14.8 5 Oeste 14 Oeste 0 -- -- 63
2019-11-12 17:00:00 15.3 5 Noroeste 18 Noroeste 0 -- -- 59
2019-11-12 16:00:00 15.8 14 Noroeste 27 Noroeste 0 -- -- 55
2019-11-12 15:00:00 15.4 10 Norte 19 Sur 0 -- -- 54
2019-11-12 14:00:00 15.5 8 Sudeste 16 Sudeste 0 -- -- 50
2019-11-12 13:00:00 14.6 9 Sudeste 17 Sudeste 0 -- -- 52
2019-11-12 12:00:00 13.4 6 Sudoeste 14 Oeste 0 -- -- 53
2019-11-12 11:00:00 11.8 3 Norte 8 Norte 0 -- -- 55
2019-11-12 10:00:00 10.4 4 Norte 12 Norte 0 -- -- 61
2019-11-12 09:00:00 6.8 3 Noroeste 10 Norte 0 -- -- 79
2019-11-12 08:00:00 8.8 10 Noroeste 29 Noroeste 0 -- -- 67
2019-11-12 07:00:00 6.2 4 Oeste 8 Oeste 0 -- -- 82
2019-11-12 06:00:00 5.9 2 Norte 7 Noroeste 0 -- -- 86
2019-11-12 05:00:00 5.9 0 Calma 4 Norte 0 -- -- 84
2019-11-12 04:00:00 8.6 0 Calma 19 Norte 0 -- -- 72
2019-11-12 03:00:00 9.9 11 Norte 19 Norte 0 -- -- 68
2019-11-12 02:00:00 9.6 13 Noroeste 28 Norte 0 -- -- 72
2019-11-12 01:00:00 9.9 18 Norte 25 Norte 0 -- -- 74
2019-11-12 00:00:00 9.9 7 Noroeste -- -- 0 -- -- 76
2019-11-11 23:00:00 8.4 5 Noroeste 7 Noroeste 0 -- -- 86
2019-11-11 22:00:00 11.1 6 Noroeste 16 Oeste 0 -- -- 74
2019-11-11 21:00:00 11.6 6 Sur 14 Noroeste 0 -- -- 75
2019-11-11 20:00:00 12.2 6 Oeste 14 Oeste 0 -- -- 75
2019-11-11 19:00:00 12.5 10 Oeste 14 Oeste 0 -- -- 74
2019-11-11 18:00:00 15.1 7 Noroeste 21 Norte 0 -- -- 65
2019-11-11 17:00:00 16 5 Sur 15 Norte 0 -- -- 75
2019-11-11 16:00:00 16 6 Sudeste 13 Sudeste 0 -- -- 76
2019-11-11 15:00:00 15.7 5 Sur 12 Sudoeste 0 -- -- 77
2019-11-11 14:00:00 13.4 6 Noroeste 11 Oeste 0 -- -- 83
2019-11-11 13:00:00 12.2 4 Sudeste 10 Oeste 0 -- -- 86
2019-11-11 12:00:00 11.3 6 Oeste 10 Oeste 0 -- -- 89
2019-11-11 11:00:00 10.4 0 Calma 5 Este 0 -- -- 91
2019-11-11 10:00:00 10 5 Sudeste 6 Sudeste 0 -- -- 92
2019-11-11 09:00:00 9.8 3 Oeste 9 Oeste 0 -- -- 91
2019-11-11 08:00:00 9.4 2 Noroeste 6 Oeste 0 -- -- 93
2019-11-11 07:00:00 9.1 0 Calma 6 Sudoeste 0 -- -- 92
2019-11-11 06:00:00 9.3 3 Oeste 6 Oeste 0.2 -- -- 88
2019-11-11 05:00:00 9.2 0 Calma 4 Sudeste 0 -- -- 87
2019-11-11 04:00:00 9.1 2 Noroeste 4 Noroeste 0 -- -- 86
2019-11-11 03:00:00 8.9 2 Norte 6 Norte 0 -- -- 86
2019-11-11 02:00:00 9 0 Calma 6 Este 0 -- -- 84
2019-11-11 01:00:00 9.4 3 Sudeste 19 Noroeste 0 -- -- 80
2019-11-11 00:00:00 9.8 13 Noroeste 21 Noroeste 0 -- -- 78
2019-11-10 23:00:00 9.4 13 Noroeste 21 Noroeste 0 -- -- 80
2019-11-10 22:00:00 9.5 11 Noroeste 17 Noroeste 0 -- -- 79
2019-11-10 21:00:00 9.5 5 Noroeste 21 Noroeste 0 -- -- 78
2019-11-10 20:00:00 10.3 14 Noroeste 30 Noroeste 0 -- -- 74
2019-11-10 19:00:00 10.6 14 Noroeste 28 Noroeste 0 -- -- 71
2019-11-10 18:00:00 10.4 12 Noroeste 21 Oeste 0 -- -- 74
2019-11-10 17:00:00 10.5 7 Noroeste 23 Oeste 0 -- -- 72
2019-11-10 16:00:00 10.8 12 Noroeste 24 Noroeste 0 -- -- 68
2019-11-10 15:00:00 10.6 9 Noroeste 24 Noroeste 0 -- -- 72
2019-11-10 14:00:00 11 14 Noroeste 28 Noroeste 0 -- -- 66
2019-11-10 13:00:00 11.4 14 Noroeste 34 Noroeste 0 -- -- 58
2019-11-10 12:00:00 11.2 20 Noroeste 47 Norte 0 -- -- 59
2019-11-10 11:00:00 11.1 18 Noroeste 29 Noroeste 0 -- -- 58
2019-11-10 10:00:00 10.5 7 Oeste 15 Sudoeste 0 -- -- 65
2019-11-10 09:00:00 9 3 Oeste 12 Noroeste 0 -- -- 72
2019-11-10 08:00:00 9 5 Oeste 17 Sudoeste 0 -- -- 69
2019-11-10 07:00:00 8.7 6 Oeste 19 Sudoeste 0 -- -- 72
2019-11-10 06:00:00 9.1 4 Oeste 17 Sudoeste 0 -- -- 72
2019-11-10 05:00:00 8.9 9 Sudoeste 23 Sudoeste 0 -- -- 73
2019-11-10 04:00:00 9.3 4 Sudoeste 12 Norte 0 -- -- 74
2019-11-10 03:00:00 9.8 5 Sudoeste 24 Oeste 0 -- -- 78
2019-11-10 02:00:00 9.4 5 Sur 18 Oeste 0 -- -- 83
2019-11-10 01:00:00 10.2 11 Sudoeste 19 Oeste 0 -- -- 79
2019-11-10 00:00:00 9.9 6 Oeste 26 Oeste 0 -- -- 87